Date String (YYYY-MM-DD hh:mm:ss) UTC,Instrument flags,Ambient pressure (hPa),Sample flow (lpm),Bypass flow (lpm),Sample temperature (°C),Ambient temperature (°C),ASC tube jacket temperature (°C),LED temperature (°C),Box temperature (°C),Sample RH (%),Span deviation,Mass concentration (μg/m³),Mass concentration (μg/m³),Mass concentration (μg/m³)
DateTimeUTC,F1_M11,P_M11,Q1_M11,Q2_M11,T1_M11,T2_M11,T3_M11,T4_M11,T5_M11,U1_M11,ZSPAN_M11,X0_M11,X2_M11,X1_M11
2022-08-11 00:00:00,,0831.4,5.00,0.00,29.4,27.7,00.0,38.1,31.2,21.6,0000.0,0016.87,0005.31,0004.09
2022-08-11 00:01:00,,0831.5,5.01,0.00,29.4,27.2,00.0,38.1,31.1,21.6,0000.0,0016.92,0005.30,0004.10
2022-08-11 00:02:00,,0831.4,4.99,0.00,29.3,27.3,00.0,38.0,31.2,21.4,0000.0,0016.27,0005.26,0004.09
2022-08-11 00:03:00,,0831.4,5.01,0.00,29.3,27.4,00.0,38.0,31.1,21.5,0000.0,0017.49,0005.24,0004.09
2022-08-11 00:04:00,,0831.4,5.00,0.00,29.3,27.6,00.0,38.0,31.1,21.5,0000.0,0016.47,0005.24,0004.09
2022-08-11 00:05:00,,0831.4,4.99,0.00,29.3,27.8,00.0,38.1,31.2,21.6,0000.0,0016.98,0005.28,0004.09
2022-08-11 00:06:00,,0831.4,5.00,0.00,29.4,28.0,00.0,38.1,31.3,21.7,0000.0,0016.59,0005.27,0004.10
2022-08-11 00:07:00,,0831.4,5.01,0.00,29.4,28.2,00.0,38.1,31.4,21.8,0000.0,0015.90,0005.30,0004.10
2022-08-11 00:08:00,,0831.4,5.00,0.00,29.5,28.0,00.0,38.1,31.4,21.5,0000.0,0016.59,0005.27,0004.09
2022-08-11 00:09:00,,0831.3,5.00,0.00,29.4,27.4,00.0,38.1,31.2,21.5,0000.0,0017.84,0005.24,0004.09
2022-08-11 00:10:00,,0831.4,5.00,0.00,29.4,27.2,00.0,38.1,31.1,21.4,0000.0,0018.12,0005.23,0004.08
2022-08-11 00:11:00,,0831.3,4.99,0.00,29.3,27.3,00.0,38.1,31.1,21.5,0000.0,0019.10,0005.27,0004.08
2022-08-11 00:12:00,,0831.3,5.01,0.00,29.3,27.4,00.0,38.1,31.1,21.9,0000.0,0019.12,0005.28,0004.08
2022-08-11 00:13:00,,0831.2,5.00,0.00,29.3,27.7,00.0,38.1,31.2,21.5,0000.0,0019.93,0005.26,0004.07
2022-08-11 00:14:00,,0831.3,5.00,0.00,29.4,27.9,00.0,38.1,31.3,22.0,0000.0,0019.22,0005.27,0004.08
2022-08-11 00:15:00,,0831.2,5.01,0.00,29.4,28.1,00.0,38.1,31.4,21.2,0000.0,0020.12,0005.29,0004.08
2022-08-11 00:16:00,,0831.2,5.00,0.00,29.4,28.2,00.0,38.1,31.4,21.6,0000.0,0020.43,0005.29,0004.07
2022-08-11 00:17:00,,0831.1,4.99,0.00,29.4,27.8,00.0,38.1,31.3,21.2,0000.0,0021.23,0005.32,0004.07
2022-08-11 00:18:00,,0831.3,5.01,0.00,29.4,27.3,00.0,38.1,31.2,21.3,0000.0,0022.69,0005.31,0004.06
2022-08-11 00:19:00,,0831.2,5.00,0.00,29.4,27.3,00.0,38.1,31.2,21.4,0000.0,0022.34,0005.32,0004.06
2022-08-11 00:20:00,,0831.2,5.00,0.00,29.3,27.4,00.0,38.1,31.1,21.6,0000.0,0021.51,0005.35,0004.06
2022-08-11 00:21:00,,0831.2,4.99,0.00,29.3,27.6,00.0,38.1,31.1,21.8,0000.0,0021.28,0005.41,0004.06
2022-08-11 00:22:00,,0831.2,4.99,0.00,29.3,27.8,00.0,38.1,31.2,22.1,0000.0,0020.69,0005.38,0004.07
2022-08-11 00:23:00,,0831.2,5.00,0.00,29.4,28.0,00.0,38.1,31.3,21.6,0000.0,0020.44,0005.32,0004.06
2022-08-11 00:24:00,,0831.2,5.01,0.00,29.4,28.2,00.0,38.1,31.4,22.1,0000.0,0019.70,0005.31,0004.06
2022-08-11 00:25:00,,0831.2,5.00,0.00,29.5,28.1,00.0,38.1,31.4,22.3,0000.0,0018.42,0005.29,0004.05
2022-08-11 00:26:00,,0831.2,5.01,0.00,29.4,27.4,00.0,38.1,31.2,22.6,0000.0,0017.24,0005.25,0004.04
2022-08-11 00:27:00,,0831.2,4.99,0.00,29.4,27.2,00.0,38.1,31.1,22.7,0000.0,0016.76,0005.26,0004.05
2022-08-11 00:28:00,,0831.2,5.00,0.00,29.3,27.2,00.0,38.1,31.1,22.0,0000.0,0015.53,0005.24,0004.05
2022-08-11 00:29:00,,0831.2,5.01,0.00,29.3,27.4,00.0,38.1,31.1,21.8,0000.0,0014.63,0005.24,0004.06
2022-08-11 00:30:00,,0831.2,5.00,0.00,29.3,27.6,00.0,38.1,31.2,21.7,0000.0,0014.79,0005.28,0004.06
2022-08-11 00:31:00,,0831.2,5.00,0.00,29.4,27.9,00.0,38.1,31.3,21.4,0000.0,0015.31,0005.27,0004.06
2022-08-11 00:32:00,,0831.2,5.00,0.00,29.4,28.1,00.0,38.1,31.4,21.6,0000.0,0015.80,0005.23,0004.05
2022-08-11 00:33:00,,0831.2,5.00,0.00,29.5,28.3,00.0,38.1,31.5,21.3,0000.0,0015.38,0005.20,0004.05
2022-08-11 00:34:00,,0831.2,4.99,0.00,29.5,28.2,00.0,38.1,31.4,21.2,0000.0,0015.59,0005.24,0004.06
2022-08-11 00:35:00,,0831.2,5.01,0.00,29.5,27.5,00.0,38.1,31.2,21.3,0000.0,0015.92,0005.27,0004.05
2022-08-11 00:36:00,,0831.2,4.99,0.00,29.4,27.3,00.0,38.1,31.2,21.5,0000.0,0016.43,0005.30,0004.05
2022-08-11 00:37:00,,0831.2,5.00,0.00,29.4,27.3,00.0,38.1,31.2,21.9,0000.0,0017.90,0005.32,0004.04
2022-08-11 00:38:00,,0831.2,5.00,0.00,29.3,27.5,00.0,38.1,31.2,21.7,0000.0,0018.25,0005.31,0004.04
2022-08-11 00:39:00,,0831.2,5.00,0.00,29.4,27.7,00.0,38.1,31.2,21.4,0000.0,0018.24,0005.27,0004.04
2022-08-11 00:40:00,,0831.2,5.00,0.00,29.4,27.9,00.0,38.1,31.3,21.4,0000.0,0017.42,0005.25,0004.03
2022-08-11 00:41:00,,0831.2,5.00,0.00,29.4,28.1,00.0,38.1,31.4,21.5,0000.0,0016.95,0005.21,0004.02
2022-08-11 00:42:00,,0831.2,4.99,0.00,29.5,28.3,00.0,38.2,31.5,21.4,0000.0,0016.94,0005.23,0004.02
2022-08-11 00:43:00,,0831.2,5.00,0.00,29.5,27.9,00.0,38.1,31.3,22.2,0000.0,0016.40,0005.23,0004.01
2022-08-11 00:44:00,,0831.2,5.00,0.00,29.4,27.3,00.0,38.1,31.2,21.8,0000.0,0016.31,0005.27,0004.01
2022-08-11 00:45:00,,0831.2,4.99,0.00,29.4,27.2,00.0,38.1,31.2,21.9,0000.0,0017.33,0005.27,0004.00
2022-08-11 00:46:00,,0831.2,5.01,0.00,29.3,27.3,00.0,38.1,31.1,22.6,0000.0,0017.70,0005.24,0004.00
2022-08-11 00:47:00,,0831.2,4.99,0.00,29.3,27.5,00.0,38.1,31.2,22.4,0000.0,0017.24,0005.18,0004.00
2022-08-11 00:48:00,,0831.2,4.99,0.00,29.4,27.8,00.0,38.1,31.3,23.1,0000.0,0016.79,0005.18,0004.00
2022-08-11 00:49:00,,0831.2,5.01,0.00,29.4,28.0,00.0,38.1,31.3,22.6,0000.0,0015.88,0005.19,0003.99
2022-08-11 00:50:00,,0831.2,5.00,0.00,29.4,28.2,00.0,38.1,31.4,21.6,0000.0,0015.41,0005.24,0004.00
2022-08-11 00:51:00,,0831.2,5.00,0.00,29.5,28.2,00.0,38.1,31.4,21.6,0000.0,0015.50,0005.26,0004.00
2022-08-11 00:52:00,,0831.2,4.99,0.00,29.4,27.6,00.0,38.1,31.2,21.6,0000.0,0015.31,0005.26,0004.01
2022-08-11 00:53:00,,0831.1,5.00,0.00,29.4,27.2,00.0,38.1,31.2,21.8,0000.0,0014.73,0005.20,0004.01
2022-08-11 00:54:00,,0831.2,5.01,0.00,29.4,27.3,00.0,38.1,31.1,21.6,0000.0,0014.83,0005.16,0003.99
2022-08-11 00:55:00,,0831.2,4.99,0.00,29.3,27.4,00.0,38.1,31.1,21.5,0000.0,0015.20,0005.09,0003.98
2022-08-11 00:56:00,,0831.2,5.00,0.00,29.3,27.6,00.0,38.1,31.2,22.3,0000.0,0014.82,0005.03,0003.97
2022-08-11 00:57:00,,0831.1,4.99,0.00,29.4,27.9,00.0,38.1,31.3,21.4,0000.0,0014.52,0005.03,0003.95
2022-08-11 00:58:00,,0831.2,4.99,0.00,29.4,28.1,00.0,38.1,31.4,21.6,0000.0,0014.65,0005.05,0003.96
2022-08-11 00:59:00,,0831.2,5.00,0.00,29.5,28.3,00.0,38.1,31.5,22.2,0000.0,0014.65,0005.08,0003.95
